Regional Weather Roundup
Issued by NWS

Home | Current Version | Previous Version | Text Only | Print | Product List | Glossary Off
Versions: 1 2 3 4 5 6 7 8 9 10 11 12 13 14 15 16 17 18 19 20 21 22 23 24 25 26 27 28 29 30 31 32 33 34 35 36 37 38 39 40 41 42 43 44 45 46 47 48 49 50

000
ASUS45 KABQ 290610
RWRNM
NEW MEXICO REGIONAL WEATHER ROUNDUP
NATIONAL WEATHER SERVICE ALBUQUERQUE NM
1200 AM MDT FRI JUL 29 2016

NOTE: "FAIR" MEANS FEW OR NO CLOUDS BELOW 12,000 FEET AGL WITH NO
       SIGNIFICANT WEATHER OR OBSTRUCTIONS TO VISION.

      THIS PRODUCT IS RELEASED AS TWO VERSIONS.  ONE VERSION NEAR
      THE TOP OF THE HOUR CONTAINING PRELIMINARY DATA FROM ALBUQUERQUE
      AND OTHER STATIONS.  A FINAL VERSION WITH ADDITIONAL DATA IS
      ISSUED ABOUT 10 MINUTES AFTER THE HOUR.

NMZ501-503-504-510>518-290700-
NORTHWEST PLATEAU/NORTHCENTRAL MOUNTAINS

CITY           SKY/WX    TMP DP  RH WIND       PRES   REMARKS
FARMINGTON     FAIR      81  38  21 N5        30.12R
6HR MIN TEMP:  81; 6HR MAX TEMP:  96;

LOS ALAMOS     FAIR      73  36  25 CALM      30.31R
SANTA FE       FAIR      77  44  30 SE18      30.22R
6HR MIN TEMP:  75; 6HR MAX TEMP:  93;

TAOS           FAIR      70  37  30 SE14      30.30R
ANGEL FIRE     FAIR      53  43  70 CALM      30.44S

$$
NMZ402-403-502-505>509-290700-
WESTCENTRAL MOUNTAINS/SOUTHWEST MOUNTAINS

CITY           SKY/WX    TMP DP  RH WIND       PRES   REMARKS
GALLUP         FAIR      68  38  33 CALM      30.24S
6HR MIN TEMP:  68; 6HR MAX TEMP:  90;

GRANTS         FAIR      68  40  35 E3        30.27R
SILVER CITY    FAIR      75  53  45 NE6       30.17S

$$
NMZ407-409-411-412-290700-
SOUTHERN DESERTS

CITY           SKY/WX    TMP DP  RH WIND       PRES   REMARKS
LORDSBURG      FAIR      81  50  34 S7        30.07R
DEMING         NOT AVBL
LAS CRUCES     FAIR      80  49  33 SE6       30.12R
HOLLOMAN AFB   FAIR      83  53  35 S13       30.06R
ALAMOGORDO     FAIR      81  52  36 S8        30.08R
T OR C         FAIR      83  51  33 W3        30.11R
6HR MIN TEMP:  82; 6HR MAX TEMP:  95;


$$
NMZ519>523-290700-
CENTRAL VALLEYS/CENTRAL HIGHLANDS

CITY           SKY/WX    TMP DP  RH WIND       PRES   REMARKS
ALBUQUERQUE    FAIR      78  46  32 SE7       30.13R
6HR MIN TEMP:  78; 6HR MAX TEMP:  91;

DOUBLE EAGLE   FAIR      72  45  38 SW8       30.18R
MORIARTY ARPT  FAIR      67  48  50 SE5       30.25R
6HR MIN TEMP:  67; 6HR MAX TEMP:  89;

CLINES CORNERS FAIR      66  46  48 S10       30.31R
6HR MIN TEMP:  66; 6HR MAX TEMP:  83;

BELEN          FAIR      77  42  28 S8        30.12S
6HR MIN TEMP:  77; 6HR MAX TEMP:  94;

SOCORRO        FAIR      78  46  32 S5        30.11S
6HR MIN TEMP:  78; 6HR MAX TEMP:  96; 6HR PCP:  0.01;


$$
NMZ524>526-539-540-290700-
SOUTHCENTRAL MOUNTAINS

CITY           SKY/WX    TMP DP  RH WIND       PRES   REMARKS
RUIDOSO          N/A     64  48  55 SE9       30.34R

$$
NMZ527>531-290700-
NORTHEAST HIGHLANDS/NORTHEAST PLAINS

CITY           SKY/WX    TMP DP  RH WIND       PRES   REMARKS
LAS VEGAS      FAIR      62  45  53 NW6       30.31S
6HR MIN TEMP:  62; 6HR MAX TEMP:  85;

RATON          FAIR      69  49  48 W10       30.25F
6HR MIN TEMP:  67; 6HR MAX TEMP:  86; 6HR PCP: TRACE;

CLAYTON        FAIR      73  56  54 NE16G28   30.20R
6HR MIN TEMP:  71; 6HR MAX TEMP:  83; 6HR PCP: TRACE;


$$
NMZ532>537-290700-
EASTCENTRAL PLAINS

CITY           SKY/WX    TMP DP  RH WIND       PRES   REMARKS
TUCUMCARI      FAIR      78  52  40 S8        30.06R
6HR MIN TEMP:  78; 6HR MAX TEMP:  96;

CANNON AFB     FAIR      72  59  64 S8        30.12R
6HR MIN TEMP:  72; 6HR MAX TEMP:  92; 6HR PCP: TRACE;

CLOVIS AIRPORT FAIR      72  55  56 S8        30.12R

$$
NMZ028-029-538-290700-
SOUTHEAST PLAINS

CITY           SKY/WX    TMP DP  RH WIND       PRES   REMARKS
ROSWELL        FAIR      79  58  48 SE6       30.07R
6HR MIN TEMP:  79; 6HR MAX TEMP:  97;

ARTESIA        FAIR      79  57  47 SE5       30.08R
CARLSBAD       FAIR      81  58  45 S10       30.05R
6HR MIN TEMP:  79; 6HR MAX TEMP:  93;

HOBBS          FAIR      75  61  60 SE10      30.13R


$$




USA.gov is the U.S. government's official web portal to all federal, state and local government web resources and services.